{"data":{"norad_id":55649,"intl_designator":"2023-021X","name":"STARLINK-5469","alt_names":[],"object_type":"PAYLOAD","status":"ACTIVE","operator":null,"country":"US","launch_date":"2023-02-17","launch_site_code":"AFWTR","launch_vehicle":null,"mission":null,"orbit_class":"UNKNOWN","rcs_meters":null,"size_class":null,"mass_kg":null,"dimensions":null,"purposes":["comms"],"wikipedia_slug":null,"has_3d_model":false,"image_url":null,"decayed_at":null,"tle_current":{"epoch":"2026-09-20T11:53:17.229984Z","epoch_age_seconds":103521,"freshness":"FRESH","line1":"1 55649U 23021X   26263.49533831  .00001643  00000+0  14547-3 0  9999","line2":"2 55649  69.9989  53.1898 0003043 265.0443  95.0368 14.98317548197973","mean_motion":14.98317548,"eccentricity":0.0003043,"inclination_deg":69.9989,"raan_deg":53.1898,"arg_perigee_deg":265.0443,"mean_anomaly_deg":95.0368,"bstar":0.00014547,"rev_number":19797,"period_min":96.107797837792,"perigee_km":569.97944257952,"apogee_km":574.20935340834,"semimajor_km":6950.2313979939,"source":"CELESTRAK","updated_at":"2026-09-21T09:00:33.284597Z"}}}